Regional Weather Roundup
Issued by NWS

Home | Current Version | Previous Version | Text Only | Print | Product List | Glossary Off
Versions: 1 2 3 4 5 6 7 8 9 10 11 12 13 14 15 16 17 18 19 20 21 22 23 24 25 26 27 28 29 30 31 32 33 34 35 36 37 38 39 40 41 42 43 44 45 46 47 48 49 50

000
ASUS43 KFSD 020010
RWRSD

WEATHER ROUNDUP FOR SOUTH DAKOTA
NATIONAL WEATHER SERVICE SIOUX FALLS SD
700 PM CDT MON SEP 01 2014

NOTE: "FAIR" INDICATES FEW OR NO CLOUDS BELOW 12,000 FEET WITH NO
SIGNIFICANT WEATHER AND/OR OBSTRUCTIONS TO VISIBILITY.


SDZ001>005-009-010-012>017-020100-
NORTHWEST AND NORTH CENTRAL SOUTH DAKOTA

CITY           SKY/WX    TMP DP  RH WIND       PRES   REMARKS
BUFFALO          N/A     65  45  48 NW7       29.85R
FAITH            N/A     63  50  62 W7        29.90S
MOBRIDGE       MOSUNNY   69  51  52 N8        29.82R
$$

SDZ012>016-024>037-041>051-057-063-072>074-020100-
SOUTHWEST AND SOUTH CENTRAL SOUTH DAKOTA

CITY           SKY/WX    TMP DP  RH WIND       PRES   REMARKS
RAPID CTY ARPT MOSUNNY   64  47  53 N8        29.95S
PIERRE         CLOUDY    69  50  50 N17       29.84R
CUSTER         MOSUNNY   57  39  51 W14G21    30.04R
ELLSWORTH AFB  MOSUNNY   65  49  55 N7        29.95R
PHILIP         CLOUDY    64  51  62 W7        29.90R
PINE RIDGE     PTSUNNY   57  51  80 MISG      29.95R
WINNER         RAIN      60  55  83 W10       29.92
$$

SDZ004>011-016>023-039-040-020100-
NORTHEAST SOUTH DAKOTA

CITY           SKY/WX    TMP DP  RH WIND       PRES   REMARKS
ABERDEEN       PTSUNNY   73  53  49 NW9       29.79R
WATERTOWN      CLOUDY    66  52  60 SW13      29.81F
SISSETON         N/A     71  56  58 W7        29.75S
$$

SDZ017-020-022-023-036>040-048>070-020100-
SOUTHEAST SOUTH DAKOTA

CITY           SKY/WX    TMP DP  RH WIND       PRES   REMARKS
SIOUX FALLS    MOSUNNY   74  53  48 W5        29.84R
HURON          CLOUDY    62  56  80 W7        29.87R
CHAMBERLAIN    RAIN      63  56  79 CALM      29.87R
MITCHELL       LGT RAIN  68  54  60 NW14      29.85R
YANKTON        SUNNY     75  54  46 CALM      29.84S
$$

ABBREVIATIONS USED IN REMARKS
   TC - TEMPERATURE IN CELSIUS
  WCI - WIND CHILL INDEX
   HX - HEAT INDEX
  VSB - VISIBILITY



USA.gov is the U.S. government's official web portal to all federal, state and local government web resources and services.